OpenBCM V1.13 (Linux)

Packet Radio Mailbox

DB0FHN

[JN59NK Nuernberg]

 Login: GUEST





  
LU1HVK > KEP      30.09.19 08:34l 242 Lines 12024 Bytes #999 (0) @ WW
BID : 32632_LU1HVK
Read: DJ6UX DF7EAV GUEST
Subj: TLE 30 09
Path: DB0FHN<DB0BLO<DB0ERF<DB0RES<ON0AR<GB7CIP<N7HPX<LU1HVK
Sent: 190930/0523Z 32632@LU1HVK.2594.CBA.ARG.SA LinBPQ6.0.19

                         _    _   _ _ _   ___     ___  __
                        | |  | | | / | | | \ \   / / |/ /
                        | |  | | | | | |_| |\ \ / /| ' /
                        | |__| |_| | |  _  | \ V / | . \
                        |_____\___/|_|_| |_|  \_/  |_|\_\

     BBS/NODO - CORDOBA (LEONES-FF87UH) - LU1HVK-4 NODO - LU1HVK-3 APRS

+----------------------------------------------------------------------------+
OSCAR 7
1  7530U 74089B   19272.88825949 -.00000048  00000-0 -18285-4 0  9999
2  7530 101.7570 239.5359 0012215 146.3033 270.2775 12.53640063 53452
OSCAR 11 (UoSAT 2)
1 14781U 84021B   19272.92601235 +.00000063 +00000-0 +13902-4 0  9993
2 14781 097.6063 292.7338 0008105 351.0475 009.0594 14.83108746893062
OSCAR 19 (LUSAT)
1 20442U 90005G   19272.87336641 -.00000012 +00000-0 +12022-4 0  9990
2 20442 098.6559 214.7350 0011245 200.4578 159.6157 14.32933485551093
EYESAT A
1 22825U 93061C   19272.91044290 -.00000009 +00000-0 +14389-4 0  9997
2 22825 098.9117 263.9422 0009375 061.8848 298.3280 14.30067349356433
ITAMSAT
1 22826U 93061D   19272.95800337 -.00000005 +00000-0 +15823-4 0  9994
2 22826 098.9058 263.9693 0009789 051.3350 308.8706 14.30401412356667
RADIO ROSTO
1 23439U 94085A   19272.84044634 -.00000041 +00000-0 +52035-4 0  9996
2 23439 064.8162 309.3217 0145329 093.1641 268.5921 11.27568138019525
JAS 2
1 24278U 96046B   19272.84978168 -.00000040  00000-0 -27607-5 0  9993
2 24278  98.5534  52.3314 0349837 332.7378  25.5771 13.53093575141750
TECHSAT 1B
1 25397U 98043D   19272.86203090 -.00000018 +00000-0 +11519-4 0  9990
2 25397 098.6951 211.7852 0002386 092.6411 267.5040 14.23671201102334
ISS (ZARYA)
1 25544U 98067A   19273.04907407  .00001044  00000-0  26222-4 0  9990
2 25544  51.6443 201.2374 0007370  97.4267  76.9936 15.50117639191522
PCSAT
1 26931U 01043C   19272.90359816 -.00000050 +00000-0 +12632-4 0  9995
2 26931 067.0498 097.3419 0007430 270.0016 090.0234 14.30553580939665
SAUDISAT 1C
1 27607U 02058C   19272.90252517 -.00000016 +00000-0 +18615-4 0  9992
2 27607 064.5539 094.0398 0076122 236.4810 122.9005 14.75574270902137
CUTE-1
1 27844U 03031E   19272.93253152 +.00000039 +00000-0 +37181-4 0  9999
2 27844 098.6855 279.6069 0010990 092.2700 267.9736 14.22196573842921
CUBESAT XI 4
1 27848U 03031J   19272.95411748 +.00000029 +00000-0 +33177-4 0  9992
2 27848 098.6931 280.1496 0010853 102.7513 257.4878 14.21789445842788
MOZHAYETS 4
1 27939U 03042A   19272.85073714  .00000163  00000-0  37762-4 0  9994
2 27939  98.0548  46.7422 0014168 100.6326 259.6486 14.66806170855668
CUBESAT XI 5
1 28895U 05043F   19272.66645010 +.00000117 +00000-0 +31236-4 0  9991
2 28895 097.9742 051.9553 0017389 030.9375 329.2849 14.63694125742310
CUTE-1.7+APD II
1 32785U 08021C   19272.75070228 +.00000186 +00000-0 +25653-4 0  9998
2 32785 097.5552 267.6320 0011560 283.1441 076.8486 14.88349175618949
DELFI C3
1 32789U 08021G   19272.93206598 +.00001306 +00000-0 +90752-4 0  9990
2 32789 097.4549 319.4369 0013584 128.3709 231.8742 15.07136540622419
SEEDS
1 32791U 08021J   19272.72952383 +.00000213 +00000-0 +26964-4 0  9990
2 32791 097.5314 273.6805 0011786 253.0085 106.9842 14.90875692619388
YUBELEINY
1 32953U 08025A   19272.66388885  .00000020  00000-0  75656-4 0  9995
2 32953  82.4976  80.7200 0018650 264.8734  95.0215 12.43091194515109
PRISM (HITOMI)
1 33493U 09002B   19272.81954863  .00000944  00000-0  88050-4 0  9990
2 33493  98.1214 197.6842 0014335 195.9723 164.1047 14.96745395580579
KKS-1 (KISEKI)
1 33499U 09002H   19272.89133700 +.00000092 +00000-0 +21520-4 0  9996
2 33499 098.3431 114.8613 0008061 233.9035 126.1427 14.75464975574014
SWISSCUBE
1 35932U 09051B   19272.45190571 +.00000108 +00000-0 +35349-4 0  9997
2 35932 098.5979 081.4958 0007139 202.7477 157.3405 14.56312599531699
BEESAT
1 35933U 09051C   19272.92962874 +.00000075 +00000-0 +28039-4 0  9994
2 35933 098.5999 083.7901 0005142 213.0304 147.0572 14.56398271531839
ITUPSAT 1
1 35935U 09051E   19272.77197792 +.00000067 +00000-0 +26548-4 0  9992
2 35935 098.6108 083.8575 0007451 213.7381 146.3342 14.55554336531606
XIWANG-1 (HOPE-1)
1 36122U 09072B   19272.72204621 -.00000017 +00000-0 +65402-4 0  9997
2 36122 100.0771 270.2736 0007851 104.2975 255.9015 13.16351569470433
TISAT 1
1 36799U 10035E   19272.68720931 +.00000198 +00000-0 +26110-4 0  9992
2 36799 098.1692 068.3412 0013600 106.8896 253.3814 14.91163289499915
JUGNU
1 37839U 11058B   19272.80075601  .00000321  00000-0  29538-4 0  9990
2 37839  19.9618  69.5055 0019019  23.7455  80.5080 14.12659636411855
SRMSAT
1 37841U 11058D   19272.01499690 +.00000318 +00000-0 +29393-4 0  9999
2 37841 019.9715 133.1636 0011835 240.4010 261.3892 14.10639888411060
M-CUBED/EXP-1 PRIME
1 37855U 11061F   19272.94335578 +.00001286 +00000-0 +71698-4 0  9994
2 37855 101.7136 221.5431 0173076 130.6317 231.0093 15.05600714431849
HORYU 2
1 38340U 12025D   19272.90804894 +.00000160 +00000-0 +31366-4 0  9991
2 38340 098.3200 314.5466 0012207 150.1742 210.0165 14.75752799385976
STRAND 1
1 39090U 13009E   19272.62611741 +.00000032 +00000-0 +26443-4 0  9991
2 39090 098.4790 116.8155 0009001 350.6426 009.4591 14.35098559345136
SOMP
1 39134U 13015E   19272.77180678 +.00001382 +00000-0 +71702-4 0  9990
2 39134 064.8638 046.4310 0036032 286.8659 072.8518 15.20347032355880
BEESAT 3
1 39135U 13015F   19272.81174632 +.00000920 +00000-0 +54873-4 0  9996
2 39135 064.8682 066.0634 0034747 295.7962 063.9580 15.17617463355507
BEESAT 2
1 39136U 13015G   19272.88803706  .00000886  00000-0  54295-4 0  9994
2 39136  64.8688  69.9353 0026539 301.3727  58.4802 15.17037476355828
CUBEBUG 1
1 39153U 13018D   19272.82588617  .00000192  00000-0  31918-4 0  9998
2 39153  97.9808  10.3855 0016077 220.6656 139.3356 14.80599376347077
ZACUBE
1 39417U 13066B   19272.79774075 +.00000202 +00000-0 +31659-4 0  9999
2 39417 097.5628 280.5056 0060215 056.8093 303.8875 14.81152619316309
TRITON 1
1 39427U 13066M   19272.93379981 +.00000152 +00000-0 +32284-4 0  9992
2 39427 097.6885 243.9973 0113314 194.2414 165.5590 14.67882903313292
GOMX 1
1 39430U 13066Q   19272.81820327  .00000144  00000-0  35487-4 0  9997
2 39430  97.7568 222.6291 0150148 289.5062  68.9980 14.59289311311646
HUMSAT D
1 39433U 13066T   19272.81265981  .00000509  00000-0  54863-4 0  9993
2 39433  97.5438 316.0518 0029651 318.7244  41.1734 14.92257395318454
CUBEBUG 2
1 39440U 13066AA  19272.93985375 +.00000197 +00000-0 +34191-4 0  9995
2 39440 097.6087 265.3133 0081636 109.1900 251.8168 14.75889885314008
FUNCUBE 1
1 39444U 13066AE  19272.94370321 +.00000270 +00000-0 +39359-4 0  9992
2 39444 097.5602 282.6867 0059235 049.9033 310.7352 14.81979405314632
UWE-3
1 39446U 13066AG  19272.90251388 +.00000201 +00000-0 +33147-4 0  9994
2 39446 097.5850 272.4045 0071556 083.4075 277.5276 14.78425105313928
SPROUT
1 39770U 14029E   19272.82900308 +.00000502 +00000-0 +61546-4 0  9996
2 39770 097.8876 015.4786 0009901 104.4699 255.7609 14.87434753290164
UNISAT 6
1 40012U 14033C   19272.85976122 +.00000167 +00000-0 +32028-4 0  9992
2 40012 097.7425 134.9533 0059420 124.1164 236.5702 14.74010676283880
DUCHIFAT 1
1 40021U 14033M   19272.85069427 +.00000335 +00000-0 +39923-4 0  9991
2 40021 097.9236 197.7857 0014384 071.4713 288.8066 14.90689823286916
QB50P1
1 40025U 14033R   19272.78823104  .00000301  00000-0  38012-4 0  9998
2 40025  97.9032 192.2944 0013890  80.9319 279.3469 14.88987713286669
CHUBUSAT 1
1 40300U 14070C   19272.81482508  .00000574  00000-0  27852-4 0  9990
2 40300  97.3188 344.3521 0021137  54.6628  84.1071 15.22181580271703
NUDT-PHONESAT
1 40900U 15049B   19272.73974941  .00001666  00000-0  73614-4 0  9991
2 40900  97.4382 281.0804 0012581 175.7377 299.3112 15.23071327223347
ZDPS 2A
1 40901U 15049C   19272.91950575 +.00000619 +00000-0 +33879-4 0  9995
2 40901 097.4619 277.2650 0012543 198.0434 252.4765 15.17845042222896
ZDPS 2B
1 40902U 15049D   19272.75753190  .00000808  00000-0  43386-4 0  9996
2 40902  97.4569 274.5187 0012703 195.5629 250.6738 15.17700369222849
XW-2A
1 40903U 15049E   19272.83014536  .00001790  00000-0  43717-4 0  9999
2 40903  97.3283 316.1356 0014672 126.9425 320.7282 15.42123868226143
KAITUO 1A
1 40904U 15049F   19272.81391497  .00000679  00000-0  39339-4 0  9992
2 40904  97.4702 273.0769 0013652 205.5054 278.1704 15.15444162222615
OBJECT G
1 40905U 15049G   19272.83494306 -.00000000  00000-0  35734-5 0  9993
2 40905  97.4755 270.5421 0014769 201.2755 279.5759 15.14346908222480
XW-2C
1 40906U 15049H   19272.79392537  .00000525  00000-0  30960-4 0  9998
2 40906  97.4713 273.1864 0013878 196.3939 290.1652 15.15761581222618
XW-2D
1 40907U 15049J   19272.81574329  .00000494  00000-0  29193-4 0  9994
2 40907  97.4694 272.8878 0013422 193.3735 244.9551 15.15955862222638
LILACSAT 2
1 40908U 15049K   19272.90706061 +.00000011 +00000-0 +42057-5 0  9995
2 40908 097.4825 271.6919 0015087 201.1501 246.2784 15.13852267222429
XW-2F
1 40910U 15049M   19272.81929488  .00000878  00000-0  47197-4 0  9998
2 40910  97.4652 275.0442 0014302 184.9447 298.4649 15.17434146222655
XW-2B
1 40911U 15049N   19272.91598225  .00000587  00000-0  34095-4 0  9991
2 40911  97.4709 273.6529 0013254 193.6569 227.0956 15.15885454222543
KAITUO 1B
1 40912U 15049P   19272.81635353  .00000953  00000-0  47686-4 0  9992
2 40912  97.4516 278.8461 0015081 166.4663 270.8685 15.19762280222972
TIANWANG 1C (TW-1C)
1 40926U 15051B   19272.83125231  .00013614  00000-0  18584-3 0  9993
2 40926  97.1254 318.9322 0007300   2.6789  85.4252 15.57566185226208
TIANWANG 1B (TW-1B)
1 40927U 15051C   19272.83340583  .00012564  00000-0  18273-3 0  9991
2 40927  97.1287 318.0948 0008099  13.9826  73.6939 15.55861375226043
